Vertical_Velocity
-2 -2 -2 -2 -3 -2 -1 0 -0 1 0 0 -0 -0 1 1 -0 1 -1 1 0 -0 1 -1 -1 0 0 -2 0 -0 -6 -0 -0 -0 -0 0 -1 1 -0 0 1 -1 -1 3 0
-3 -2 -1 0 1 0 -1 -1 -1 -2 -2 -2 -0 -0 3 1 3 -4 9 0 -1 -2 -1 -1 -1 1 -3 -1 -1 -5 -2 -2 -0 -0 -0 -1 -0 -1 0 -1 1 -1 5 1 0
0 0 -1 -2 -1 -0 -1 -0 0 0 1 0 0 -2 -2 2 -2 -0 0 0 0 0 0 -0 -1 -1 -2 1 0 1 -3 -0 0 0 0 0 -0 1 -0 -0 -1 2 -4 -1 0
-3 -3 -3 -2 0 2 2 1 -0 0 0 -2 -0 -1 1 -2 1 -0 0 -0 0 -1 -2 -1 -0 -3 -2 -1 0 -3 0 -0 -0 -0 -1 -0 0 -1 0 -6 3 0 -1 -1 0
-3 -1 1 1 1 1 1 1 -1 -1 1 -2 -1 -1 -1 -0 -1 -0 -0 -1 0 -0 -1 -2 -3 -1 -1 -1 -0 -1 0 -0 -0 0 -0 1 -1 -2 -5 -1 0 -1 -0 -3 -1
2 2 1 -0 -1 -2 -1 -1 1 -0 1 2 -2 -2 -1 -3 -0 -0 -2 -0 -1 -0 -1 -2 -1 -1 -2 -0 -2 -0 -0 -2 -0 0 0 1 -1 -1 -1 0 -2 -2 -1 -1 -1
1 -0 0 -1 -0 -1 -0 1 -2 -1 1 2 2 -1 0 -1 -0 0 0 -2 -0 0 -1 -0 -1 0 0 0 1 -0 -2 -1 0 0 1 0 -1 -2 4 -0 -2 -1 -1 -1 1
0 -0 -0 1 2 0 -1 0 -1 -2 -1 1 2 1 -1 -3 -1 1 -0 0 -1 -1 -0 -0 -1 -3 -1 1 -3 -2 -4 -2 -2 -1 1 -8 -8 -3 1 1 -3 1 0 0 1
0 0 -0 1 2 0 0 -1 1 -2 -1 -1 4 1 -0 -2 -1 -1 2 0 -0 -0 -1 0 -0 -1 -1 -3 -4 -3 -1 -0 -7 0 -0 -3 -4 -6 2 3 -4 -1 0 0 3
-2 -1 1 1 0 -1 2 -1 2 -1 2 -0 -0 -1 0 -1 -1 -0 1 1 -0 0 -0 -1 -3 -2 -2 -3 -4 -1 -1 -0 -1 -4 -0 -1 -7 -5 -4 1 -2 -1 -1 2 2
-2 -1 0 -1 3 2 2 -3 1 1 2 -0 0 -1 1 0 -0 0 -1 -1 -0 -1 -1 -1 -6 -1 -2 -1 -0 -1 -0 -0 -2 -3 2 -1 -1 -5 -4 0 -1 -1 0 -1 1
-2 -1 -1 -1 0 3 -1 -1 -2 1 -2 -0 0 -1 0 1 -1 -0 -1 -1 -2 -0 -0 -6 -1 -1 -0 -0 -1 0 0 -2 -4 -0 4 -1 -8 -3 -0 -1 1 -0 -1 0 1
3 -2 -1 -0 -1 3 1 -2 -0 -1 -4 0 0 -0 -0 1 -0 -0 -0 -0 -1 -0 0 -2 -1 -0 -0 1 0 -1 -1 -1 -1 -2 -1 1 -4 -2 -2 -0 1 1 0 1 0
0 3 -2 -2 -0 0 2 2 -2 -2 -8 -2 -0 1 0 -0 -1 2 2 0 -0 -1 -0 -2 -2 0 0 -0 -3 1 -1 -0 0 -2 -3 -6 -9 -2 -0 0 -0 1 1 -1 2
-2 2 2 -4 -0 2 0 1 1 -3 -8 -4 1 2 1 -3 -1 0 1 -1 -0 -0 -4 -3 0 -0 0 -3 -1 -6 0 1 0 0 -1 -1 -6 -14 0 1 -0 0 2 1 -4
4 -1 2 0 -4 2 -0 2 1 -22 -14 -2 0 -1 -0 1 2 1 -2 -1 0 -1 -1 -2 -0 1 -3 1 -0 0 -1 -2 -1 -1 -5 -3 -4 -8 -2 -3 1 1 -1 -1 -2
8 -1 -0 0 -0 -3 1 2 -15 -9 -5 -1 -2 1 -0 1 2 0 -0 -1 -3 -6 -2 -3 -1 -1 -0 -1 -1 -4 -4 -5 -9 -7 -6 -0 -0 -12 -1 -0 -3 -1 1 0 -3
5 6 -1 3 0 2 -2 -10 -5 -6 -2 -0 -1 1 -2 -2 1 1 0 -0 1 -1 -1 -2 -9 -0 -1 -1 -2 1 -4 -7 -3 -2 -3 -0 -4 -15 -3 -0 1 0 -0 -4 -2
6 1 1 1 2 1 -3 -3 -13 -3 -7 -2 -1 0 1 1 -6 -0 -0 -1 -2 -2 -7 -3 -2 -2 -1 0 -5 -0 -2 -2 -4 -1 -3 -4 -9 -6 2 1 1 -1 -2 -2 -1
1 5 -1 2 2 2 -6 -5 -1 -1 -2 -1 -3 -4 -1 -0 -1 -0 -0 -3 0 -1 -1 -1 -7 0 -2 0 -1 -3 -5 -8 -5 -4 -2 -3 -1 -7 0 -1 -1 -2 -2 1 5
12 1 1 6 6 2 -4 -5 -1 0 -1 -4 -2 -1 -2 -3 -3 -0 -3 1 0 1 -1 -2 -9 -6 -2 -0 -3 -1 1 -4 -8 -3 -4 -1 -10 -5 -2 -1 -1 -1 3 -7 -5
11 0 4 4 -2 -0 -1 -4 -0 1 0 -0 -2 -1 -3 -1 -0 0 -3 -1 0 -3 -1 0 -4 -2 -6 1 1 -0 -3 -3 -7 -8 -2 -1 -18 0 -1 -1 1 -1 -2 -0 4
4 -1 9 4 -2 0 -1 -0 -2 1 -0 1 -0 -2 -0 -2 -7 -1 0 0 -0 -1 -5 -5 -2 -4 -8 -11 -6 -0 0 -1 -1 -3 -3 -4 -14 0 1 -0 -1 2 -2 -5 -1
0 1 8 3 3 -3 -1 -1 1 2 0 -0 -2 -2 -1 0 -0 -2 0 -0 0 -1 0 -3 -0 -7 -9 -11 -5 -2 0 0 -4 -0 -3 -10 -8 -9 -5 -1 -5 -7 -3 -2 -2
0 -4 -8 -1 1 1 0 -3 1 1 0 0 1 -1 -4 -2 0 -0 0 1 1 1 2 -6 -2 0 -2 -0 0 -2 -1 -0 0 -7 5 -19 1 -10 -3 1 -1 -0 -2 -2 -3
-10 -6 3 -0 0 7 -0 -3 -3 3 -9 0 -1 -1 -0 -5 -8 -3 -4 -2 -6 -1 -1 -2 -2 0 -2 -1 1 1 -1 0 -0 -2 2 3 -13 -0 -9 -1 -2 -1 0 -3 -4
6 8 -4 -2 1 2 -5 -4 -4 -4 -2 -4 -6 -4 2 -7 -3 1 -0 -1 -6 -7 -0 -2 -1 -1 -4 0 -1 -1 -6 -2 -1 0 -5 -1 -16 -1 -2 -1 -2 -3 -1 -2 -2
Height
1496 1494 1491 1488 1484 1480 1477 1474 1472 1471 1470 1470 1469 1469 1469 1470 1471 1473 1474 1475 1474 1473 1473 1473 1474 1474 1475 1477 1478 1480 1491 1495 1489 1490 1491 1491 1492 1492 1492 1492 1491 1492 1493 1494 1492
1496 1494 1491 1487 1484 1480 1476 1474 1472 1470 1469 1469 1469 1470 1471 1472 1474 1473 1476 1474 1473 1472 1473 1474 1474 1474 1476 1477 1479 1480 1491 1489 1488 1489 1490 1490 1490 1490 1491 1490 1490 1490 1491 1491 1490
1496 1493 1490 1486 1483 1480 1476 1473 1471 1470 1469 1468 1469 1470 1472 1474 1475 1476 1475 1475 1474 1473 1474 1474 1474 1475 1477 1478 1481 1482 1487 1487 1487 1488 1488 1487 1486 1487 1487 1488 1487 1487 1486 1486 1485
1496 1493 1489 1486 1482 1480 1477 1475 1472 1471 1470 1469 1469 1471 1473 1475 1479 1477 1476 1476 1475 1474 1474 1474 1475 1475 1479 1481 1481 1484 1484 1485 1486 1487 1487 1486 1484 1484 1484 1483 1485 1485 1484 1484 1483
1496 1492 1489 1486 1483 1480 1477 1475 1472 1470 1470 1470 1471 1473 1475 1475 1477 1477 1477 1476 1475 1475 1474 1474 1475 1477 1481 1482 1482 1484 1485 1484 1484 1484 1484 1485 1484 1484 1480 1481 1482 1483 1483 1482 1482
1496 1493 1490 1487 1483 1480 1477 1475 1473 1472 1472 1472 1473 1474 1475 1477 1477 1477 1477 1476 1475 1475 1475 1475 1476 1478 1480 1482 1484 1485 1486 1484 1483 1483 1483 1484 1483 1483 1479 1480 1481 1481 1481 1481 1481
1495 1492 1489 1486 1483 1480 1478 1475 1474 1475 1475 1476 1475 1475 1475 1478 1477 1478 1478 1476 1476 1476 1476 1476 1477 1479 1481 1483 1484 1485 1486 1483 1482 1482 1482 1482 1481 1481 1478 1479 1479 1479 1480 1480 1480
1494 1491 1488 1485 1482 1479 1477 1476 1475 1476 1476 1477 1476 1475 1475 1478 1478 1478 1478 1477 1476 1477 1477 1477 1478 1480 1482 1484 1485 1487 1488 1489 1482 1482 1483 1483 1487 1476 1476 1477 1477 1477 1478 1477 1477
1492 1489 1487 1485 1482 1479 1477 1476 1476 1476 1476 1477 1477 1475 1476 1478 1478 1479 1479 1479 1478 1478 1478 1479 1480 1482 1484 1487 1494 1493 1498 1491 1489 1484 1484 1483 1485 1474 1475 1475 1473 1472 1472 1473 1474
1490 1488 1485 1483 1481 1478 1476 1476 1476 1477 1477 1477 1476 1479 1478 1478 1478 1478 1479 1479 1479 1479 1480 1480 1481 1486 1488 1492 1494 1489 1493 1494 1495 1486 1485 1486 1478 1472 1472 1472 1468 1466 1466 1468 1472
1488 1486 1483 1481 1479 1477 1476 1476 1479 1478 1477 1475 1476 1477 1477 1477 1478 1479 1479 1479 1479 1480 1483 1482 1486 1487 1484 1486 1485 1487 1491 1495 1492 1486 1487 1484 1477 1467 1468 1468 1466 1464 1464 1467 1471
1485 1483 1481 1480 1478 1475 1474 1473 1473 1474 1476 1476 1475 1476 1477 1476 1477 1478 1479 1481 1480 1483 1483 1487 1486 1481 1482 1484 1486 1488 1491 1496 1490 1485 1485 1483 1475 1466 1463 1464 1464 1463 1464 1467 1469
1481 1480 1479 1478 1476 1475 1472 1472 1471 1472 1474 1476 1476 1475 1477 1478 1477 1477 1479 1479 1480 1483 1484 1486 1482 1481 1481 1483 1485 1487 1490 1491 1491 1488 1485 1483 1472 1470 1465 1464 1464 1463 1465 1467 1468
1479 1477 1476 1475 1477 1474 1472 1470 1470 1472 1485 1477 1476 1475 1476 1477 1478 1479 1479 1481 1481 1482 1483 1485 1481 1480 1482 1482 1485 1488 1485 1486 1487 1492 1497 1486 1495 1473 1468 1466 1466 1465 1465 1466 1468
1475 1475 1473 1472 1474 1473 1473 1470 1470 1474 1499 1475 1474 1474 1474 1477 1480 1480 1480 1480 1481 1482 1485 1481 1480 1481 1482 1482 1482 1485 1484 1487 1488 1493 1495 1495 1507 1475 1468 1465 1466 1465 1465 1466 1466
1471 1472 1471 1471 1471 1473 1471 1470 1472 1485 1494 1473 1472 1473 1474 1475 1477 1478 1480 1481 1482 1483 1484 1485 1482 1482 1481 1482 1482 1484 1485 1493 1498 1502 1525 1500 1499 1475 1467 1463 1465 1464 1465 1466 1466
1468 1467 1469 1468 1469 1471 1471 1473 1485 1491 1468 1470 1469 1470 1472 1474 1476 1476 1479 1481 1484 1492 1487 1486 1483 1481 1481 1482 1484 1485 1494 1519 1511 1526 1513 1496 1498 1468 1460 1460 1462 1463 1463 1464 1463
1464 1464 1464 1466 1466 1468 1472 1476 1489 1462 1465 1461 1463 1467 1470 1473 1474 1475 1479 1482 1480 1483 1502 1499 1491 1482 1481 1481 1483 1490 1493 1517 1504 1527 1509 1500 1489 1464 1459 1459 1460 1462 1463 1463 1461
1460 1460 1459 1463 1463 1466 1471 1490 1464 1455 1452 1458 1465 1468 1471 1470 1475 1475 1478 1480 1477 1479 1489 1506 1486 1484 1483 1482 1484 1491 1500 1498 1508 1518 1528 1500 1482 1460 1457 1460 1460 1462 1462 1459 1455
1457 1456 1456 1458 1460 1464 1470 1463 1450 1446 1449 1453 1453 1459 1468 1471 1472 1476 1478 1473 1475 1477 1478 1489 1501 1486 1485 1484 1487 1487 1493 1506 1530 1529 1516 1492 1491 1460 1457 1459 1460 1459 1457 1454 1449
1454 1453 1449 1453 1458 1461 1466 1457 1447 1444 1447 1451 1454 1459 1461 1466 1470 1476 1475 1471 1472 1477 1478 1486 1493 1489 1486 1486 1489 1494 1495 1507 1514 1523 1521 1515 1477 1455 1452 1454 1457 1456 1451 1450 1448
1446 1447 1445 1449 1455 1452 1452 1444 1442 1444 1446 1448 1451 1454 1458 1463 1470 1474 1469 1469 1469 1472 1477 1485 1499 1506 1489 1488 1489 1489 1502 1505 1518 1526 1536 1518 1475 1450 1451 1451 1451 1451 1451 1448 1443
1438 1439 1443 1446 1446 1444 1442 1439 1439 1443 1444 1448 1450 1451 1455 1460 1471 1469 1467 1466 1468 1470 1476 1480 1500 1510 1494 1495 1491 1493 1493 1504 1514 1517 1516 1520 1465 1450 1450 1448 1447 1447 1445 1442 1438
1431 1435 1437 1440 1435 1433 1437 1437 1437 1437 1439 1443 1448 1450 1456 1459 1462 1470 1468 1466 1467 1470 1472 1474 1489 1488 1484 1489 1498 1498 1501 1493 1497 1505 1486 1471 1450 1447 1447 1445 1446 1445 1442 1439 1436
1418 1419 1422 1426 1427 1427 1429 1429 1431 1436 1436 1439 1447 1446 1451 1470 1463 1465 1466 1467 1469 1470 1474 1478 1490 1491 1481 1480 1488 1485 1486 1490 1490 1476 1476 1450 1458 1440 1443 1444 1443 1441 1438 1436 1433
1403 1408 1415 1418 1417 1421 1425 1425 1421 1426 1429 1435 1438 1439 1446 1454 1450 1459 1463 1466 1467 1472 1477 1480 1485 1484 1482 1474 1475 1473 1465 1467 1469 1470 1467 1457 1453 1436 1440 1441 1440 1437 1435 1432 1429
1391 1395 1401 1408 1415 1416 1408 1409 1412 1416 1424 1422 1426 1436 1443 1440 1446 1448 1452 1454 1458 1466 1477 1482 1482 1485 1489 1478 1476 1469 1445 1450 1453 1454 1453 1457 1438 1438 1437 1437 1436 1433 1432 1428 1424